APRIZESAT 2

Last updated on July 6, 2021, 3:39 p.m. UTC

1 28366U 04025A   21187.09928864  .00000009  00000-0  16986-4 0  9994
2 28366  98.2164  67.8985 0106480 296.4100  62.6189 14.36743917892085
UTC
Height (km)
Latitude
Longitude
Inclination
Orbital Period
UTC large
Height (km)
Speed (km/s)
/
Latitude / Longitude
Inclination (degrees)
Orbital Period (minutes)
Azimuth
Elevation
Range (km)
Doppler Factor
iOS Compass Heading
iOS Angle